TimeMST,TemperatureF,Dew PointF,Humidity,Sea Level PressureIn,VisibilityMPH,Wind Direction,Wind SpeedMPH,Gust SpeedMPH,PrecipitationIn,Events,Conditions,WindDirDegrees,DateUTC
12:52 AM,46.0,36.0,68,30.09,10.0,North,3.5,-,N/A,,Overcast,360,2013-01-26 07:52:00
1:52 AM,44.1,37.0,76,30.08,10.0,Calm,Calm,-,0.00,,Light Drizzle,0,2013-01-26 08:52:00
2:52 AM,44.1,37.9,79,30.05,10.0,NNW,3.5,-,0.00,,Overcast,340,2013-01-26 09:52:00
3:52 AM,44.1,35.1,71,30.03,10.0,North,5.8,-,N/A,,Overcast,360,2013-01-26 10:52:00
4:52 AM,44.1,35.1,71,30.03,10.0,NE,3.5,-,N/A,,Overcast,50,2013-01-26 11:52:00
5:52 AM,43.0,35.1,74,30.03,10.0,Calm,Calm,-,N/A,,Overcast,0,2013-01-26 12:52:00
6:52 AM,42.1,34.0,73,30.03,10.0,North,8.1,-,N/A,,Overcast,350,2013-01-26 13:52:00
7:52 AM,43.0,35.1,74,30.02,10.0,NNE,6.9,-,N/A,,Overcast,30,2013-01-26 14:52:00
8:52 AM,46.0,35.1,66,30.01,10.0,Calm,Calm,-,N/A,,Overcast,0,2013-01-26 15:52:00
9:52 AM,48.9,36.0,61,30.00,10.0,Calm,Calm,-,N/A,,Overcast,0,2013-01-26 16:52:00
10:52 AM,48.9,37.9,66,30.00,10.0,West,3.5,-,0.00,Rain,Light Rain,280,2013-01-26 17:52:00
11:52 AM,48.0,42.1,80,29.99,7.0,South,3.5,-,0.03,Rain,Light Rain,180,2013-01-26 18:52:00
12:50 PM,46.4,44.6,93,30.04,6.0,SSE,4.6,-,0.07,Rain,Light Rain,160,2013-01-26 19:50:00
12:52 PM,46.9,44.1,90,29.96,6.0,SSE,5.8,-,0.07,Rain,Light Rain,160,2013-01-26 19:52:00
1:52 PM,50.0,46.0,86,29.91,10.0,Variable,5.8,-,0.01,,Mostly Cloudy,0,2013-01-26 20:52:00
2:52 PM,54.0,48.0,80,29.86,10.0,South,8.1,-,N/A,,Scattered Clouds,180,2013-01-26 21:52:00
3:52 PM,55.9,48.9,77,29.83,10.0,South,19.6,25.3,N/A,,Mostly Cloudy,190,2013-01-26 22:52:00
4:52 PM,54.0,48.0,80,29.83,10.0,South,17.3,27.6,0.00,Rain,Light Rain,180,2013-01-26 23:52:00
5:35 PM,51.8,48.2,88,29.95,10.0,South,17.3,23.0,0.00,,Mostly Cloudy,180,2013-01-27 00:35:00
5:52 PM,52.0,46.9,83,29.87,10.0,South,16.1,-,0.00,,Mostly Cloudy,190,2013-01-27 00:52:00
6:05 PM,51.8,42.8,71,29.98,10.0,West,11.5,21.9,N/A,,Mostly Cloudy,260,2013-01-27 01:05:00
6:52 PM,48.9,42.1,77,29.90,10.0,SSW,4.6,-,N/A,,Mostly Cloudy,200,2013-01-27 01:52:00
7:52 PM,48.0,42.1,80,29.91,10.0,South,6.9,-,N/A,,Mostly Cloudy,170,2013-01-27 02:52:00
8:52 PM,46.0,43.0,89,29.91,10.0,South,5.8,-,N/A,,Scattered Clouds,190,2013-01-27 03:52:00
9:52 PM,48.0,37.9,68,29.90,10.0,SSW,6.9,-,N/A,,Mostly Cloudy,210,2013-01-27 04:52:00
10:52 PM,48.0,37.0,66,29.90,10.0,SSW,10.4,-,N/A,,Mostly Cloudy,200,2013-01-27 05:52:00
11:52 PM,43.0,37.0,80,29.92,10.0,SSE,16.1,-,N/A,,Mostly Cloudy,150,2013-01-27 06:52:00